1511874000.6,41198,10.88,72740.3,-3.29,-29.89,-29.73,0,*58
1511874001.87,41199,10.88,72746.5,-3.29,-29.95,-29.89,0,*51
1511874003.07,41200,10.88,72744.5,-3.27,-30.11,-29.95,0,*55
1511874004.36,41201,10.88,72744.8,-3.29,-29.89,-29.73,0,*5B
1511874005.59,41202,10.88,72744.5,-3.29,-29.79,-29.57,0,*51
1511874006.85,41203,10.88,72744.0,-3.33,-29.79,-29.73,0,*5D
1511874008.08,41204,10.88,72742.0,-3.29,-29.79,-29.57,0,*57
1511874009.37,41205,10.88,72746.0,-3.29,-29.89,-29.89,0,*5A
1511874010.63,41206,10.88,72744.8,-3.33,-30.01,-29.79,0,*55
1511874011.87,41207,10.88,72740.3,-3.33,-29.83,-29.95,0,*54
1511874013.15,41208,10.88,72740.3,-3.33,-30.01,-30.01,0,*5C
1511874014.39,41209,10.88,72744.8,-3.33,-29.95,-29.95,0,*5D
1511874015.65,41210,10.88,72740.5,-3.33,-30.01,-29.95,0,*50
1511874016.89,41211,10.88,72742.5,-3.35,-30.01,-29.95,0,*57
1511874018.09,41212,10.88,72738.5,-3.35,-30.11,-29.95,0,*55
1511874019.3,41213,10.88,72740.5,-3.35,-30.11,-29.79,0,*56
1511874020.57,41214,10.88,72746.0,-3.35,-30.17,-30.01,0,*50
1511874021.8,41215,10.88,72744.5,-3.33,-30.11,-29.95,0,*54
1511874023.02,41216,10.88,72744.3,-3.35,-29.83,-29.95,0,*52
1511874024.25,41217,10.88,72738.5,-3.35,-30.11,-30.01,0,*55
1511874025.52,41218,10.88,72742.8,-3.33,-30.11,-30.01,0,*5C
1511874026.73,41219,10.88,72740.3,-3.35,-29.95,-29.79,0,*58
1511874027.94,41220,10.88,72740.3,-3.35,-29.95,-29.61,0,*5B
1511874029.18,41221,10.88,72740.3,-3.33,-29.83,-29.79,0,*52
1511874030.44,41222,10.88,72746.0,-3.33,-29.79,-29.73,0,*5E
1511874031.65,41223,10.88,72744.5,-3.35,-29.79,-29.57,0,*5F
1511874032.89,41224,10.88,72746.8,-3.35,-29.61,-29.39,0,*59
1511874034.15,41225,10.88,72742.5,-3.37,-29.61,-29.35,0,*56
1511874035.39,41226,10.88,72740.5,-3.35,-29.57,-29.29,0,*5F
1511874036.6,41227,10.88,72738.8,-3.35,-29.79,-29.57,0,*5B
1511874037.84,41228,10.88,72734.0,-3.33,-29.79,-29.61,0,*57
1511874039.08,41229,10.88,72734.8,-3.33,-29.79,-29.57,0,*53
1511874040.29,41230,10.88,72734.3,-3.35,-29.61,-29.45,0,*57
1511874041.53,41231,10.88,72734.5,-3.35,-29.61,-29.39,0,*5D
1511874042.74,41232,10.88,72736.5,-3.35,-29.61,-29.57,0,*56
1511874043.98,41233,10.88,72736.0,-3.35,-29.73,-29.57,0,*54
1511874045.19,41234,10.88,72738.3,-3.35,-29.79,-29.57,0,*59
1511874046.41,41235,10.88,72734.5,-3.35,-29.79,-29.57,0,*58
1511874047.67,41236,10.88,72738.0,-3.33,-29.73,-29.57,0,*57
1511874048.91,41237,10.88,72736.8,-3.33,-29.83,-29.61,0,*5C
1511874050.14,41238,10.88,72738.3,-3.35,-30.01,-29.95,0,*5C
1511874051.41,41239,10.88,72734.3,-3.35,-30.17,-30.01,0,*5F
1511874052.62,41240,10.88,72738.5,-3.35,-30.27,-30.11,0,*53
1511874053.91,41241,10.88,72740.0,-3.37,-30.17,-30.05,0,*56
1511874055.16,41242,10.88,72734.8,-3.37,-30.01,-29.67,0,*5E
1511874056.45,41243,10.88,72736.3,-3.37,-30.05,-30.01,0,*53
1511874057.74,41244,10.88,72738.0,-3.37,-30.17,-30.17,0,*50
1511874059.0,41245,10.88,72736.3,-3.39,-30.05,-30.01,0,*5B
1511874060.28,41246,10.88,72738.3,-3.37,-30.05,-30.01,0,*56
1511874061.54,41247,10.88,72740.0,-3.39,-30.05,-30.01,0,*59
1511874062.82,41248,10.88,72736.8,-3.37,-30.05,-30.01,0,*58
1511874064.11,41249,10.88,72738.8,-3.37,-30.17,-30.01,0,*5A
1511874065.34,41250,10.88,72740.8,-3.39,-30.01,-29.83,0,*59
1511874066.57,41251,10.88,72736.5,-3.39,-30.23,-30.05,0,*5E
1511874067.79,41252,10.88,72740.3,-3.39,-30.39,-30.23,0,*52
1511874069.05,41253,10.88,72738.0,-3.39,-30.17,-30.17,0,*58
1511874070.31,41254,10.88,72740.3,-3.39,-30.05,-30.01,0,*5B
1511874071.54,41255,10.88,72742.5,-3.39,-30.05,-29.83,0,*58
1511874072.77,41256,10.88,72742.3,-3.45,-30.17,-29.95,0,*54
1511874074.0,41257,10.88,72742.3,-3.39,-29.89,-29.79,0,*53
1511874075.26,41258,10.88,72740.5,-3.43,-30.11,-29.89,0,*57
1511874076.51,41259,10.88,72742.0,-3.43,-30.23,-30.05,0,*5B
1511874077.74,41260,10.88,72736.8,-3.43,-30.27,-30.11,0,*50
1511874078.99,41261,10.88,72738.5,-3.43,-30.11,-30.05,0,*51
1511874080.19,41262,10.88,72740.3,-3.45,-30.11,-30.11,0,*51
1511874081.45,41263,10.88,72740.8,-3.43,-30.11,-29.89,0,*5F
1511874082.68,41264,10.88,72742.5,-3.43,-30.27,-30.23,0,*55
1511874083.92,41265,10.88,72738.0,-3.45,-30.33,-30.17,0,*50
1511874085.11,41266,10.88,72738.8,-3.45,-30.45,-30.27,0,*51
1511874086.37,41267,10.88,72736.5,-3.43,-30.23,-30.17,0,*55
1511874087.58,41268,10.88,72742.5,-3.45,-30.27,-30.11,0,*5E
1511874088.81,41269,10.88,72742.3,-3.45,-30.33,-30.17,0,*5C
1511874090.04,41270,10.88,72736.3,-3.45,-30.33,-30.17,0,*54
1511874091.27,41271,10.88,72742.8,-3.45,-30.17,-29.95,0,*51
1511874092.49,41272,10.88,72740.0,-3.45,-30.01,-29.95,0,*55
1511874093.7,41273,10.88,72744.3,-3.45,-30.27,-30.11,0,*54
1511874094.96,41274,10.88,72746.8,-3.49,-30.17,-30.01,0,*5D
1511874096.19,41275,10.88,72740.8,-3.49,-30.17,-29.95,0,*59
1511874097.45,41276,10.88,72738.8,-3.47,-30.33,-30.17,0,*50
1511874098.67,41277,10.88,72738.5,-3.47,-30.11,-29.79,0,*51
1511874099.9,41278,10.88,72730.5,-3.49,-30.23,-30.01,0,*56
1511874101.15,41279,10.88,72718.8,-3.47,-30.17,-30.11,0,*5F
1511874102.36,41280,10.88,72722.5,-3.49,-30.23,-30.11,0,*50
1511874103.58,41281,10.88,72724.3,-3.47,-30.45,-30.27,0,*5A
1511874104.8,41282,10.88,72728.5,-3.49,-30.39,-30.23,0,*58
1511874106.03,41283,10.88,72730.0,-3.49,-30.39,-30.33,0,*58
1511874107.24,41284,10.88,72736.0,-3.49,-30.33,-30.23,0,*54
1511874108.44,41285,10.88,72740.5,-3.49,-30.23,-30.23,0,*54
1511874109.7,41286,10.88,72738.0,-3.49,-30.17,-30.01,0,*50
1511874110.94,41287,10.88,72738.5,-3.49,-30.23,-30.01,0,*56
1511874112.19,41288,10.88,72742.0,-3.51,-30.05,-29.95,0,*51
1511874113.45,41289,10.88,72742.0,-3.51,-30.05,-29.83,0,*57
1511874114.71,41290,10.88,72750.3,-3.53,-30.05,-29.89,0,*57
1511874116.0,41291,10.88,72742.0,-3.51,-30.17,-30.17,0,*58
1511874117.23,41292,10.88,72746.3,-3.53,-30.23,-30.01,0,*59
1511874118.5,41293,10.88,72746.0,-3.53,-29.89,-29.73,0,*5D
1511874119.76,41294,10.88,72748.3,-3.53,-30.05,-29.89,0,*53
1511874121.02,41295,10.88,72748.3,-3.53,-29.89,-29.73,0,*5B
1511874122.24,41296,10.88,72744.8,-3.53,-29.83,-29.45,0,*57
1511874123.49,41297,10.88,72750.8,-3.53,-30.01,-29.73,0,*51
1511874124.73,41298,10.88,72744.5,-3.53,-30.05,-29.83,0,*55
1511874125.99,41299,10.88,72744.0,-3.51,-30.17,-29.95,0,*52
1511874127.23,41300,10.88,72744.8,-3.53,-30.11,-29.89,0,*5A
1511874128.46,41301,10.88,72744.8,-3.53,-30.23,-30.01,0,*52
1511874129.72,41302,10.88,72746.3,-3.53,-30.05,-29.73,0,*58
1511874130.98,41303,10.88,72744.8,-3.53,-29.89,-29.73,0,*55
1511874132.23,41304,10.88,72746.8,-3.53,-30.01,-29.73,0,*5A
1511874133.49,41305,10.88,72744.0,-3.51,-30.05,-29.79,0,*57
1511874134.73,41306,10.88,72746.5,-3.53,-29.89,-29.67,0,*55
1511874135.99,41307,10.88,72754.0,-3.53,-29.89,-29.73,0,*51
1511874137.23,41308,10.88,72750.8,-3.53,-29.89,-29.67,0,*5B
1511874138.47,41309,10.88,72748.8,-3.53,-30.01,-29.57,0,*51
1511874139.71,41310,10.88,72748.3,-3.53,-29.89,-29.57,0,*51
1511874140.95,41311,10.88,72748.8,-3.53,-29.89,-29.67,0,*53
1511874142.19,41312,10.88,72746.5,-3.51,-29.95,-29.61,0,*59
1511874143.45,41313,10.88,72742.8,-3.53,-29.89,-29.73,0,*54
1511874144.71,41314,10.88,72742.5,-3.53,-30.01,-29.73,0,*5B
1511874145.95,41315,10.88,72740.3,-3.53,-30.01,-29.83,0,*55
1511874147.2,41316,10.88,72744.3,-3.55,-30.01,-29.83,0,*50
1511874148.46,41317,10.88,72740.8,-3.55,-30.01,-29.83,0,*51
1511874149.73,41318,10.88,72748.0,-3.55,-30.01,-29.73,0,*51
1511874151.01,41319,10.88,72748.5,-3.55,-30.01,-29.73,0,*50
1511874152.3,41320,10.88,72752.3,-3.55,-29.89,-29.73,0,*52
1511874153.51,41321,10.88,72742.3,-3.57,-29.95,-29.61,0,*5F
1511874154.75,41322,10.88,72746.0,-3.57,-29.95,-29.73,0,*5F
1511874155.99,41323,10.88,72746.5,-3.57,-29.89,-29.61,0,*50
1511874157.25,41324,10.88,72750.5,-3.55,-29.89,-29.57,0,*50
1511874158.51,41325,10.88,72748.0,-3.55,-29.83,-29.39,0,*53
1511874159.78,41326,10.88,72750.8,-3.55,-30.01,-29.73,0,*5C
1511874161.04,41327,10.88,72750.8,-3.55,-30.01,-29.67,0,*58
1511874162.28,41328,10.88,72746.5,-3.55,-29.83,-29.67,0,*55
1511874163.53,41329,10.88,72742.8,-3.55,-30.01,-29.67,0,*56
1511874164.81,41330,10.88,72748.3,-3.55,-30.05,-29.73,0,*5F
1511874166.06,41331,10.88,72748.3,-3.55,-30.11,-30.01,0,*56
1511874167.32,41332,10.88,72752.5,-3.59,-30.05,-29.79,0,*5B
1511874168.53,41333,10.88,72752.3,-3.57,-29.61,-29.45,0,*51
1511874169.77,41334,10.88,72754.3,-3.53,-29.67,-29.39,0,*5F
1511874171.01,41335,10.88,72750.5,-3.57,-29.89,-29.57,0,*52
1511874172.23,41336,10.88,72748.0,-3.57,-29.95,-29.57,0,*5C
1511874173.49,41337,10.88,72746.3,-3.55,-29.83,-29.51,0,*5E
1511874174.73,41338,10.88,72746.0,-3.57,-29.89,-29.57,0,*5F
1511874175.99,41339,10.88,72750.8,-3.55,-29.73,-29.57,0,*59
1511874177.27,41340,10.88,72750.0,-3.55,-29.73,-29.39,0,*5F
1511874178.54,41341,10.88,72748.0,-3.55,-29.73,-29.39,0,*5E
1511874179.8,41342,10.88,72750.8,-3.55,-29.51,-29.23,0,*56
1511874181.09,41343,10.88,72746.0,-3.55,-29.51,-29.17,0,*50
1511874182.32,41344,10.88,72748.5,-3.55,-29.57,-29.23,0,*56
1511874183.55,41345,10.88,72750.8,-3.55,-29.57,-29.23,0,*57
1511874184.78,41346,10.88,72748.5,-3.53,-29.51,-29.23,0,*54
1511874186.05,41347,10.88,72750.3,-3.55,-29.57,-29.35,0,*52
1511874187.29,41348,10.88,72748.0,-3.53,-29.57,-29.35,0,*5B
1511874188.5,41349,10.88,72744.0,-3.53,-29.57,-29.23,0,*5D
1511874189.73,41350,10.88,72744.3,-3.55,-29.57,-29.23,0,*53
1511874190.98,41351,10.88,72742.8,-3.53,-29.67,-29.35,0,*50
1511874192.22,41352,10.88,72740.0,-3.53,-29.57,-29.35,0,*50
1511874193.46,41353,10.88,72736.3,-3.53,-29.57,-29.35,0,*51
1511874194.7,41354,10.88,72750.8,-3.53,-29.67,-29.39,0,*59
1511874195.94,41355,10.88,72750.8,-3.53,-29.83,-29.39,0,*52
1511874197.22,41356,10.88,72746.8,-3.55,-29.73,-29.35,0,*54
1511874198.48,41357,10.88,72746.3,-3.55,-29.67,-29.39,0,*5C
1511874199.73,41358,10.88,72746.5,-3.55,-29.39,-29.23,0,*53
1511874200.97,41359,10.88,72748.3,-3.53,-29.35,-29.07,0,*5E
1511874202.24,41360,10.88,72746.5,-3.53,-29.35,-29.01,0,*52
1511874203.45,41361,10.88,72748.8,-3.53,-29.57,-29.23,0,*57
1511874204.69,41362,10.88,72758.5,-3.53,-29.67,-29.35,0,*50
1511874205.95,41363,10.88,72756.8,-3.53,-29.73,-29.39,0,*58
1511874207.18,41364,10.88,72752.8,-3.53,-29.83,-29.39,0,*50
1511874208.43,41365,10.88,72756.0,-3.53,-29.67,-29.35,0,*57
1511874209.68,41366,10.88,72750.5,-3.51,-29.61,-29.29,0,*5D
1511874210.92,41367,10.88,72746.3,-3.53,-29.83,-29.39,0,*53
1511874212.16,41368,10.88,72742.0,-3.53,-29.83,-29.51,0,*52
1511874213.42,41369,10.88,72742.8,-3.53,-29.73,-29.39,0,*52
1511874214.68,41370,10.88,72746.8,-3.55,-29.89,-29.57,0,*51
1511874215.89,41371,10.88,72750.0,-3.57,-29.95,-29.79,0,*53
1511874217.17,41372,10.88,72748.8,-3.55,-29.89,-29.39,0,*5B
1511874218.43,41373,10.88,72748.8,-3.55,-29.89,-29.57,0,*52
1511874219.67,41374,10.88,72744.3,-3.55,-29.83,-29.67,0,*5C
1511874220.92,41375,10.88,72744.0,-3.57,-29.89,-29.57,0,*56
1511874222.16,41376,10.88,72748.5,-3.57,-29.89,-29.57,0,*55
1511874223.42,41377,10.88,72742.8,-3.55,-29.83,-29.51,0,*5A
1511874224.64,41378,10.88,72746.3,-3.57,-29.79,-29.45,0,*57
1511874225.85,41379,10.88,72746.3,-3.57,-29.57,-29.45,0,*5A
1511874227.09,41380,10.88,72750.8,-3.57,-29.45,-29.29,0,*55
1511874228.35,41381,10.88,72746.8,-3.55,-29.57,-29.35,0,*58
1511874229.61,41382,10.88,72752.0,-3.55,-29.67,-29.35,0,*58
1511874230.85,41383,10.88,72744.3,-3.57,-29.79,-29.39,0,*58
1511874232.1,41384,10.88,72748.0,-3.55,-29.83,-29.39,0,*58
1511874233.36,41385,10.88,72746.0,-3.57,-29.73,-29.39,0,*54
1511874234.6,41386,10.88,72728.0,-3.57,-29.57,-29.39,0,*51
1511874235.89,41387,10.88,72736.5,-3.55,-29.51,-29.35,0,*58
1511874237.12,41388,10.88,72740.0,-3.57,-29.79,-29.39,0,*53
1511874238.38,41389,10.88,72748.0,-3.57,-29.73,-29.39,0,*58
1511874239.61,41390,10.88,72744.8,-3.57,-29.79,-29.39,0,*5A
1511874240.85,41391,10.88,72744.8,-3.57,-29.73,-29.45,0,*5A
1511874242.08,41392,10.88,72746.0,-3.57,-29.61,-29.29,0,*50
1511874243.31,41393,10.88,72750.8,-3.55,-29.57,-29.23,0,*5C
1511874244.54,41394,10.88,72754.3,-3.57,-29.61,-29.29,0,*56
1511874245.8,41395,10.88,72748.3,-3.57,-29.73,-29.39,0,*55
1511874247.04,41396,10.88,72748.0,-3.57,-29.73,-29.45,0,*5D
1511874248.32,41397,10.88,72744.5,-3.55,-29.51,-29.17,0,*59
1511874249.58,41398,10.88,72744.3,-3.55,-29.51,-29.23,0,*51
1511874250.82,41399,10.88,72746.8,-3.57,-29.57,-29.39,0,*5F
1511874252.06,41400,10.88,72744.5,-3.57,-29.67,-29.35,0,*57
1511874253.3,41401,10.88,72750.3,-3.57,-29.57,-29.39,0,*59
1511874254.53,41402,10.88,72746.3,-3.57,-29.57,-29.13,0,*52
1511874255.77,41403,10.88,72744.8,-3.57,-29.57,-29.29,0,*5A
1511874257.01,41404,10.88,72750.0,-3.57,-29.57,-29.39,0,*5C
1511874258.24,41405,10.88,72752.0,-3.57,-29.61,-29.39,0,*58
1511874259.45,41406,10.88,72752.5,-3.57,-29.57,-29.23,0,*55
1511874260.69,41407,10.88,72754.8,-3.57,-29.61,-29.39,0,*5A
1511874261.95,41408,10.88,72752.0,-3.55,-29.83,-29.35,0,*57
1511874263.2,41409,10.88,72744.8,-3.57,-29.83,-29.51,0,*56
1511874264.41,41410,10.88,72748.0,-3.57,-29.79,-29.45,0,*5E
1511874265.65,41411,10.88,72742.8,-3.57,-29.89,-29.57,0,*53
1511874266.9,41412,10.88,72742.3,-3.57,-29.89,-29.57,0,*50
1511874268.11,41413,10.88,72742.3,-3.57,-29.79,-29.45,0,*5D
1511874269.35,41414,10.88,72744.3,-3.57,-29.89,-29.57,0,*56
1511874270.56,41415,10.88,72744.3,-3.57,-29.79,-29.45,0,*5B
1511874271.8,41416,10.88,72742.0,-3.57,-29.73,-29.45,0,*52
1511874273.04,41417,10.88,72742.8,-3.57,-29.89,-29.57,0,*55
1511874274.28,41418,10.88,72742.8,-3.57,-29.73,-29.57,0,*5F
1511874275.52,41419,10.88,72744.5,-3.57,-29.89,-29.45,0,*58
1511874276.76,41420,10.88,72744.3,-3.57,-29.89,-29.57,0,*51
1511874277.97,41421,10.88,72746.3,-3.57,-29.79,-29.61,0,*5A
1511874279.24,41422,10.88,72746.5,-3.57,-29.89,-29.73,0,*55
1511874280.5,41423,10.88,72744.3,-3.59,-29.89,-29.61,0,*59
1511874281.77,41424,10.88,72738.5,-3.59,-29.89,-29.57,0,*5B
1511874283.03,41425,10.88,72740.0,-3.59,-29.89,-29.57,0,*5A
1511874284.25,41426,10.88,72744.8,-3.57,-29.95,-29.61,0,*5F
1511874285.51,41427,10.88,72746.8,-3.59,-29.89,-29.45,0,*5B
1511874286.78,41428,10.88,72744.3,-3.59,-29.89,-29.57,0,*57
1511874288.02,41429,10.88,72746.5,-3.57,-29.89,-29.57,0,*58
1511874289.26,41430,10.88,72742.0,-3.59,-29.79,-29.57,0,*51
1511874290.49,41431,10.88,72740.5,-3.61,-29.73,-29.45,0,*52
1511874291.7,41432,10.88,72744.0,-3.61,-29.79,-29.45,0,*5B
1511874292.94,41433,10.88,72746.3,-3.59,-29.79,-29.45,0,*51
1511874294.15,41434,10.88,72740.5,-3.61,-29.95,-29.61,0,*59
1511874295.36,41435,10.88,72738.8,-3.61,-29.79,-29.57,0,*5F
1511874296.58,41436,10.88,72746.0,-3.61,-29.95,-29.61,0,*5B
1511874297.82,41437,10.88,72740.3,-3.61,-29.83,-29.51,0,*5E
1511874299.06,41438,10.88,72746.8,-3.59,-29.79,-29.57,0,*59
1511874300.29,41439,10.88,72744.5,-3.59,-29.79,-29.45,0,*5B
1511874301.54,41440,10.88,72742.3,-3.61,-29.67,-29.51,0,*54
1511874302.77,41441,10.88,72742.0,-3.61,-29.79,-29.51,0,*5A
1511874304.03,41442,10.88,72746.8,-3.59,-29.73,-29.45,0,*5D
1511874305.28,41443,10.88,72754.3,-3.61,-29.83,-29.51,0,*5D
1511874306.49,41444,10.88,72750.3,-3.61,-29.67,-29.45,0,*55
1511874307.75,41445,10.88,72746.8,-3.59,-29.61,-29.39,0,*52
1511874308.96,41446,10.88,72748.5,-3.61,-29.79,-29.45,0,*58
1511874310.22,41447,10.88,72748.5,-3.59,-29.73,-29.45,0,*58
1511874311.46,41448,10.88,72750.5,-3.61,-29.79,-29.51,0,*53
1511874312.7,41449,10.88,72746.0,-3.61,-29.79,-29.51,0,*52
1511874313.91,41450,10.88,72742.0,-3.61,-29.61,-29.45,0,*56
1511874315.13,41451,10.88,72742.8,-3.61,-29.79,-29.45,0,*5E
1511874316.34,41452,10.88,72746.3,-3.61,-29.95,-29.61,0,*59
1511874317.58,41453,10.88,72746.0,-3.61,-29.67,-29.51,0,*56
1511874318.82,41454,10.88,72746.0,-3.61,-29.67,-29.51,0,*51
1511874320.1,41455,10.88,72744.0,-3.59,-29.73,-29.39,0,*50
1511874321.35,41456,10.88,72744.5,-3.61,-29.67,-29.35,0,*51
1511874322.59,41457,10.88,72748.0,-3.61,-29.61,-29.35,0,*56
1511874323.84,41458,10.88,72750.5,-3.59,-29.61,-29.39,0,*5E
1511874325.06,41459,10.88,72748.5,-3.61,-29.67,-29.45,0,*59
1511874326.3,41460,10.88,72750.8,-3.61,-29.45,-29.17,0,*54
1511874327.56,41461,10.88,72748.0,-3.61,-29.35,-29.13,0,*56
1511874328.82,41462,10.88,72748.3,-3.59,-29.57,-29.29,0,*53
1511874330.03,41463,10.88,72750.0,-3.61,-29.79,-29.45,0,*5F
1511874331.27,41464,10.88,72750.8,-3.61,-29.45,-29.17,0,*50
1511874332.53,41465,10.88,72752.0,-3.61,-29.51,-29.17,0,*54
1511874333.75,41466,10.88,72752.8,-3.61,-29.61,-29.45,0,*53
1511874335.02,41467,10.88,72746.5,-3.61,-29.51,-29.35,0,*56
1511874336.28,41468,10.88,72748.3,-3.61,-29.51,-29.29,0,*54
1511874337.49,41469,10.88,72750.5,-3.61,-29.61,-29.45,0,*5C
1511874338.73,41470,10.88,72748.0,-3.61,-29.61,-29.35,0,*53
1511874339.97,41471,10.88,72748.3,-3.61,-29.61,-29.35,0,*52
1511874341.19,41472,10.88,72746.0,-3.61,-29.61,-29.45,0,*56
1511874342.43,41473,10.88,72744.5,-3.61,-29.79,-29.51,0,*5B
1511874343.66,41474,10.88,72746.3,-3.59,-29.79,-29.45,0,*52
1511874344.91,41475,10.88,72744.8,-3.61,-29.67,-29.51,0,*52
1511874346.15,41476,10.88,72742.8,-3.61,-29.67,-29.51,0,*51
1511874347.39,41477,10.88,72746.3,-3.65,-29.73,-29.57,0,*57
1511874348.65,41478,10.88,72744.5,-3.65,-29.73,-29.51,0,*5E
1511874349.86,41479,10.88,72746.5,-3.61,-29.67,-29.45,0,*5B
1511874351.08,41480,10.88,72744.5,-3.61,-29.79,-29.45,0,*52
1511874352.36,41481,10.88,72740.0,-3.59,-29.73,-29.39,0,*59
1511874353.63,41482,10.88,72740.5,-3.61,-29.51,-29.35,0,*5D
1511874354.84,41483,10.88,72746.8,-3.61,-29.67,-29.45,0,*5E
1511874356.09,41484,10.88,72742.8,-3.65,-29.83,-29.51,0,*52
1511874357.33,41485,10.88,72740.3,-3.65,-29.67,-29.39,0,*57
1511874358.56,41486,10.94,72744.5,-3.65,-29.67,-29.39,0,*54
1511874359.78,41487,10.88,72736.3,-3.61,-29.61,-29.45,0,*5C
1511874361.04,41488,10.88,72736.8,-3.59,-29.57,-29.29,0,*57
1511874362.3,41489,10.88,72742.5,-3.61,-29.51,-29.29,0,*5B
1511874363.51,41490,10.88,72744.5,-3.61,-29.79,-29.45,0,*53
1511874364.75,41491,10.94,72748.5,-3.61,-29.61,-29.35,0,*5C
1511874366.01,41492,10.94,72750.3,-3.61,-29.35,-29.13,0,*5A
1511874367.24,41493,10.88,72744.3,-3.61,-29.45,-29.29,0,*55
1511874368.52,41494,10.88,72744.3,-3.59,-29.73,-29.39,0,*5D
1511874369.77,41495,10.88,72740.0,-3.61,-29.61,-29.35,0,*58
1511874370.98,41496,10.88,72742.5,-3.61,-29.61,-29.45,0,*5C
1511874372.22,41497,10.88,72740.3,-3.61,-29.79,-29.35,0,*53
1511874373.45,41498,10.88,72744.5,-3.61,-29.29,-29.07,0,*58
1511874374.71,41499,10.88,72748.8,-3.61,-29.51,-29.13,0,*53
1511874375.97,41500,10.88,72740.3,-3.61,-29.35,-29.17,0,*54
1511874377.23,41501,10.88,72748.3,-3.59,-29.45,-29.39,0,*55
1511874378.48,41502,10.88,72746.3,-3.61,-29.51,-29.45,0,*53
1511874379.72,41503,10.94,72750.5,-3.61,-29.45,-29.17,0,*50
1511874380.96,41504,10.88,72748.5,-3.61,-29.61,-29.35,0,*51
1511874382.2,41505,10.94,72740.8,-3.61,-29.57,-29.39,0,*59
1511874383.41,41506,10.88,72742.5,-3.61,-29.67,-29.45,0,*52
1511874384.63,41507,10.88,72744.5,-3.61,-29.67,-29.45,0,*53
1511874385.84,41508,10.94,72750.3,-3.61,-29.67,-29.45,0,*5C
1511874387.13,41509,10.88,72748.0,-3.59,-29.39,-29.29,0,*57
1511874388.36,41510,10.88,72750.3,-3.61,-29.45,-29.29,0,*5F
1511874389.62,41511,10.94,72748.8,-3.61,-29.35,-29.13,0,*50
1511874390.87,41512,10.88,72744.5,-3.61,-29.29,-29.13,0,*5E
1511874392.12,41513,10.88,72746.3,-3.61,-29.29,-29.13,0,*5F
1511874393.39,41514,10.88,72748.3,-3.61,-29.35,-29.17,0,*51
1511874394.64,41515,10.88,72750.0,-3.59,-29.29,-29.07,0,*57
1511874395.87,41516,10.88,72750.0,-3.59,-29.23,-29.07,0,*5E
1511874397.15,41517,10.94,72752.8,-3.59,-29.29,-29.13,0,*50
1511874398.42,41518,10.94,72752.0,-3.59,-29.13,-29.13,0,*56
1511874399.68,41519,10.88,72744.3,-3.59,-29.13,-29.07,0,*52
1511874400.91,41520,10.88,72746.5,-3.61,-29.17,-29.07,0,*57
1511874402.17,41521,10.94,72748.0,-3.59,-29.01,-28.85,0,*51
1511874403.43,41522,10.88,72744.8,-3.59,-29.07,-28.91,0,*51
1511874404.67,41523,10.88,72748.8,-3.61,-29.45,-29.17,0,*52
1511874405.93,41524,10.94,72750.5,-3.59,-29.39,-29.23,0,*52
1511874407.19,41525,10.88,72748.8,-3.61,-29.35,-29.29,0,*5E
1511874408.47,41526,10.94,72752.3,-3.59,-29.29,-29.13,0,*52
1511874409.73,41527,10.94,72748.0,-3.59,-29.39,-29.23,0,*51
1511874411.01,41528,10.88,72746.0,-3.59,-29.29,-29.01,0,*5F
1511874412.24,41529,10.94,72748.8,-3.59,-29.23,-29.23,0,*54
1511874413.52,41530,10.88,72748.5,-3.59,-29.39,-29.13,0,*54
1511874414.75,41531,10.88,72748.3,-3.57,-29.29,-29.07,0,*5F
1511874415.99,41532,10.94,72746.0,-3.57,-29.23,-29.13,0,*53
1511874417.21,41533,10.88,72740.8,-3.57,-29.29,-29.23,0,*5B
1511874418.47,41534,10.88,72742.0,-3.59,-29.29,-29.23,0,*52
1511874419.75,41535,10.88,72738.5,-3.59,-29.29,-29.17,0,*54
1511874421.01,41536,10.88,72742.5,-3.59,-29.07,-29.01,0,*5C
1511874422.26,41537,10.88,72742.8,-3.55,-29.17,-29.07,0,*56
1511874423.46,41538,10.94,72744.8,-3.57,-29.23,-29.07,0,*5C
1511874424.69,41539,10.94,72746.8,-3.57,-29.13,-29.07,0,*5E
1511874425.94,41540,10.88,72746.3,-3.55,-29.17,-29.07,0,*56
1511874427.17,41541,10.88,72738.5,-3.57,-29.29,-29.07,0,*58
1511874428.4,41542,10.88,72740.3,-3.55,-29.23,-29.07,0,*53
1511874429.65,41543,10.94,72742.0,-3.57,-29.29,-29.13,0,*5F
1511874430.86,41544,10.88,72744.3,-3.57,-29.23,-29.07,0,*57
1511874432.14,41545,10.94,72748.8,-3.55,-29.17,-29.01,0,*55
1511874433.35,41546,10.88,72746.8,-3.57,-29.23,-29.07,0,*55
1511874434.6,41547,10.88,72742.5,-3.57,-29.29,-29.13,0,*5B
1511874435.88,41548,10.94,72744.8,-3.55,-29.17,-29.01,0,*58
1511874437.13,41549,10.94,72746.0,-3.55,-29.01,-28.97,0,*50
1511874438.41,41550,10.94,72746.5,-3.55,-29.17,-29.01,0,*51
1511874439.69,41551,10.88,72740.5,-3.55,-29.17,-29.01,0,*50
1511874440.92,41552,10.94,72742.8,-3.55,-29.23,-29.07,0,*52
1511874442.18,41553,10.88,72740.8,-3.55,-29.07,-29.01,0,*53
1511874443.46,41554,10.88,72744.3,-3.55,-29.35,-29.17,0,*52
1511874444.72,41555,10.94,72746.5,-3.55,-29.23,-29.17,0,*54
1511874446.0,41556,10.94,72744.5,-3.55,-29.17,-29.01,0,*57
1511874447.25,41557,10.88,72742.5,-3.55,-29.07,-29.01,0,*57
1511874448.54,41558,10.88,72750.0,-3.55,-29.35,-29.17,0,*5E
1511874449.78,41559,10.94,72740.3,-3.53,-29.23,-29.35,0,*5E
1511874451.04,41560,10.94,72740.0,-3.55,-29.39,-29.23,0,*5E
1511874452.32,41561,10.94,72742.0,-3.55,-29.35,-29.17,0,*54
1511874453.58,41562,10.88,72746.0,-3.55,-29.39,-29.23,0,*5C
1511874454.84,41563,10.88,72746.3,-3.55,-29.51,-29.23,0,*53
1511874456.06,41564,10.94,72744.8,-3.55,-29.23,-29.07,0,*57
1511874457.35,41565,10.88,72746.8,-3.55,-29.35,-29.17,0,*50
1511874458.58,41566,10.94,72748.5,-3.53,-29.35,-29.23,0,*52
1511874459.88,41567,10.94,72746.5,-3.55,-29.51,-29.35,0,*50
1511874461.1,41568,10.94,72742.3,-3.55,-29.23,-29.23,0,*5D
1511874462.39,41569,10.88,72742.0,-3.55,-29.35,-29.17,0,*5C
1511874463.65,41570,10.94,72744.0,-3.55,-29.51,-29.23,0,*51
1511874464.9,41571,10.88,72744.3,-3.55,-29.23,-29.17,0,*52
1511874466.15,41572,10.88,72744.8,-3.55,-29.17,-29.07,0,*57
1511874467.43,41573,10.94,72740.8,-3.55,-29.17,-29.17,0,*57
1511874468.69,41574,10.94,72742.5,-3.55,-29.35,-29.23,0,*57
1511874469.94,41575,10.94,72746.0,-3.55,-29.35,-29.07,0,*50
1511874471.2,41576,10.88,72740.3,-3.55,-29.35,-29.23,0,*55
1511874472.44,41577,10.88,72742.8,-3.53,-29.23,-29.17,0,*52
1511874473.68,41578,10.94,72744.0,-3.53,-29.57,-29.35,0,*5E
1511874474.96,41579,10.94,72740.3,-3.51,-29.17,-29.13,0,*5D
1511874476.22,41580,10.88,72742.3,-3.53,-29.35,-29.17,0,*5D
1511874477.45,41581,10.88,72740.5,-3.53,-29.23,-29.17,0,*5B
1511874478.72,41582,10.94,72744.5,-3.53,-29.35,-29.17,0,*5F
1511874479.98,41583,10.88,72746.5,-3.53,-29.35,-29.13,0,*5A
1511874481.22,41584,10.94,72750.5,-3.53,-29.35,-29.23,0,*5E
1511874482.45,41585,10.94,72752.3,-3.53,-29.39,-29.23,0,*53
1511874483.69,41586,10.94,72756.5,-3.53,-29.35,-29.23,0,*5C
1511874484.95,41587,10.94,72752.5,-3.51,-29.45,-29.17,0,*5F
1511874486.22,41588,10.88,72752.3,-3.53,-29.39,-29.35,0,*59
1511874487.48,41589,10.88,72750.8,-3.51,-29.45,-29.29,0,*5C
1511874488.75,41590,10.88,72748.8,-3.53,-29.51,-29.35,0,*5E
1511874489.99,41591,10.94,72756.0,-3.53,-29.57,-29.39,0,*55
1511874491.25,41592,10.88,72750.8,-3.51,-29.45,-29.35,0,*5B
1511874492.53,41593,10.94,72752.3,-3.53,-29.39,-29.35,0,*53
1511874493.74,41594,10.94,72750.8,-3.53,-29.67,-29.57,0,*5B
1511874495.01,41595,10.94,72754.3,-3.53,-29.51,-29.39,0,*57
1511874496.27,41596,10.94,72752.5,-3.53,-29.51,-29.39,0,*54
1511874497.54,41597,10.94,72752.3,-3.53,-29.39,-29.35,0,*57